User: anonymous   Login
Location: Unspecified
(0.0000°N, 0.0000°E)
Time: 03:21:29
(UTC+00:00)
Language:

Tansei-3 - Orbit

View from above orbital plane
View from above orbital plane
View from above satellite
View from above satellite

Ground track
Ground track

The orbit data is extracted from the following two-line orbital elements,

1  9841U 77012A   18322.13520596 -.00000008  00000-0  82285-4 0  9994
2  9841  65.7584 336.1358 1734295 324.3538  25.2750 10.73818081636695
Epoch (UTC): 18 November 2018 03:14:41
Eccentricity: 0.1734295
inclination: 65.7584°
perigee height: 795 km
apogee height: 3805 km
right ascension of ascending node: 336.1358°
argument of perigee: 324.3538°
revolutions per day: 10.73818081
mean anomaly at epoch: 25.2750°
orbit number at epoch: 63669

The dashed part of the orbit path shows where the satellite is in the earth's shadow,  

DLR